Location: Newark
(40.2333°N, 1.4000°W)
Time: 13:50:45
(UTC+00:00)

Envisat - Visible Passes

Search period start: 20 October 2019 00:00
Search period end: 30 October 2019 00:00
Orbit: 764 x 766 km, 98.1° (Epoch: 20 October)

Date Brightness Start Highest point End Pass type
(mag) Time Alt. Az. Time Alt. Az. Time Alt. Az.
20 Oct 5.3 19:10:25 10° SSW 19:14:32 25° W 19:18:41 10° NW visible
21 Oct 6.4 05:41:53 10° ENE 05:44:14 13° E 05:46:34 10° ESE visible
21 Oct 3.7 18:32:37 10° S 18:37:35 56° W 18:42:35 10° NNW visible
22 Oct 3.0 17:55:49 10° SSE 18:00:50 66° ENE 18:05:53 10° N visible
22 Oct 6.1 19:37:44 10° WSW 19:40:17 14° W 19:42:52 10° WNW visible
23 Oct 4.9 18:58:43 10° SSW 19:03:12 31° W 19:07:42 10° NNW visible
24 Oct 3.3 18:21:15 10° S 18:26:18 71° WSW 18:31:24 10° NNW visible
25 Oct 3.1 17:44:42 10° SSE 17:49:36 51° ENE 17:54:32 10° N visible
25 Oct 5.7 19:25:32 10° SW 19:28:54 18° W 19:32:18 10° NW visible
26 Oct 6.1 05:55:06 10° NE 05:58:38 19° E 06:02:08 10° SE visible
26 Oct 4.4 18:47:08 10° SSW 18:51:53 39° W 18:56:38 10° NNW visible
27 Oct 3.0 18:09:57 10° SSE 18:15:02 90° WSW 18:20:09 10° NNW visible
28 Oct 3.4 17:33:41 10° SE 17:38:23 41° ENE 17:43:08 10° N visible
28 Oct 5.4 19:13:36 10° SW 19:17:32 23° W 19:21:30 10° NW visible
29 Oct 6.2 05:44:29 10° ENE 05:47:15 15° E 05:50:00 10° ESE visible
29 Oct 3.9 18:35:39 10° S 18:40:34 50° W 18:45:31 10° NNW visible
